Regional Weather Roundup
Issued by NWS

Home | Current Version | Previous Version | Text Only | Print | Product List | Glossary On
Versions: 1 2 3 4 5 6 7 8 9 10 11 12 13 14 15 16 17 18 19 20 21 22 23 24 25 26 27 28 29 30 31 32 33 34 35 36 37 38 39 40 41 42 43 44 45 46 47 48 49 50
000
ASUS43 KDMX 200707
RWRIA

WEATHER ROUNDUP FOR IOWA
NATIONAL WEATHER SERVICE DES MOINES IA
100 AM CST SAT DEC 20 2014

NOTE: "FAIR" INDICATES FEW OR NO CLOUDS BELOW 12,000 FEET WITH NO
SIGNIFICANT WEATHER AND/OR OBSTRUCTIONS TO VISIBILITY.

* - THESE STATIONS ARE NOT NWS STATIONS...THUS NOT UNDER NWS
QUALITY CONTROL.  THEY ALSO DO NOT REPORT WEATHER SUCH
AS PRECIPITATION OR FOG.

IAZ001>003-012>014-020>022-031>034-043>046-200800-
   NORTHWEST IOWA

CITY           SKY/WX    TMP DP  RH WIND       PRES   REMARKS
CARROLL *      CLOUDY    28  28 100 S12       30.15F WCI  18
CHEROKEE *     CLOUDY    30  30 100 S9        30.11F FOG     WCI  22
DENISON *      CLOUDY    30  30 100 S12       30.11F FOG     WCI  21
LE MARS *      CLOUDY    32  30  93 SE8       30.10S WCI  25
ORANGE CITY *  CLOUDY    32  28  86 S7        30.09S FOG     WCI  26
SHELDON *      CLOUDY    30  30 100 S14       30.08F FOG     WCI  20
SIOUX CITY     CLOUDY    32  29  88 SE10      30.10F WCI  24
SPENCER        CLOUDY    31  28  89 S10       30.11F FOG     WCI  22
STORM LAKE *   CLOUDY    28  28 100 S12       30.12S FOG     WCI  18
$$

IAZ055>058-069>071-079>083-090>094-200800-
   SOUTHWEST IOWA

CITY           SKY/WX    TMP DP  RH WIND       PRES   REMARKS
ATLANTIC *     CLOUDY    30  28  93 S7        30.15F WCI  23
AUDUBON *      CLOUDY    28  25  86 S9        30.16S WCI  20
CLARINDA *     CLOUDY    30  28  93 SE7       30.19F WCI  23
COUNCIL BLFS * CLOUDY    30  30 100 SE10      30.12S FOG     WCI  21
CRESTON *      CLOUDY    30  30 100 S9        30.17F FOG     WCI  22
HARLAN  *      CLOUDY    30  30 100 S9        30.17F FOG     WCI  22
LAMONI         CLOUDY    30  29  96 SW7       30.18S WCI  23
RED OAK *      CLOUDY    30  30 100 S10       30.16F FOG     WCI  21
SHENANDOAH *   CLOUDY    30  30 100 SE12      30.16F FOG     WCI  21
$$

IAZ047>049-059>061-072>074-084-200800-
   CENTRAL IOWA

CITY           SKY/WX    TMP DP  RH WIND       PRES   REMARKS
AMES           CLOUDY    30  28  92 SE7       30.18F FOG     WCI  23
ANKENY *       CLOUDY    32  32 100 SE6       30.18F FOG     WCI  26
CHARITON *     CLOUDY    32  32 100 S6        30.18F FOG     WCI  26
DES MOINES     LGT SNOW  32  30  92 S6        30.18F FOG     WCI  26
GRINNELL*      CLOUDY    30  28  93 SE8       30.20F FOG     WCI  23
KNOXVILLE *    CLOUDY    30  28  93 SE6       30.18F FOG     WCI  24
MARSHALLTOWN   CLOUDY    29  27  92 SE7       30.18F FOG     WCI  22
PELLA *        CLOUDY    30  28  93 SE6       30.21F FOG     WCI  24
PERRY *        CLOUDY    32  30  93 S8        30.18R FOG     WCI  25
$$

IAZ004>006-015-016-023>025-035-036-200800-
   NORTH CENTRAL IOWA

CITY           SKY/WX    TMP DP  RH WIND       PRES   REMARKS
ALGONA *       FOG       30  32 100 S13       30.14F VSB 1   WCI  20
CLARION *      FOG       30  30 100 S10       30.16S VSB 3/4 WCI  21
ESTHERVILLE    CLOUDY    29  28  96 S15       30.11S WCI  18
FORT DODGE *   CLOUDY    30  27  86 SW9       30.16S WCI  22
MASON CITY     CLOUDY    29  26  89 S12       30.18S FOG     WCI  19
FOREST CITY *  CLOUDY    30  28  93 SE8       30.16S FOG     WCI  23
IOWA FALLS *   CLOUDY    30  28  93 S9        30.18F FOG     WCI  22
$$

IAZ007>011-017>019-026>030-037>042-050>054-066-200800-
   NORTHEAST IOWA

CITY           SKY/WX    TMP DP  RH WIND       PRES   REMARKS
CEDAR RAPIDS   CLOUDY    30  23  75 SE7       30.22F WCI  23
CHARLES CITY * CLOUDY    28  27  93 S12       30.19F WCI  18
CLINTON *      CLOUDY    27  21  80 SE3       30.28F
DECORAH *      CLOUDY    27  23  86 VRB5      30.20S WCI  21
DUBUQUE        CLOUDY    26  23  88 S8        30.24S WCI  18
MONTICELLO *   CLOUDY    28  27  93 SE5       30.24S WCI  23
OELWEIN *      CLOUDY    28  25  86 S7        30.22S WCI  21
WATERLOO       CLOUDY    29  24  82 S10       30.21F WCI  20
$$

IAZ064-065-067-068-078-200800-
   EAST CENTRAL IOWA

CITY           SKY/WX    TMP DP  RH WIND       PRES   REMARKS
DAVENPORT      CLOUDY    29  23  78 S7        30.26S WCI  22
IOWA CITY      CLOUDY    30  24  78 SE6       30.26S WCI  24
MT. PLEASANT * CLOUDY    30  27  86 SE5       30.24S WCI  25
MUSCATINE *    CLOUDY    32  25  74 CALM      30.27R
QUAD CITIES    CLOUDY    29  24  82 E3        30.26F
$$

IAZ062-063-075>077-085>089-095>099-200800-
   SOUTHEAST IOWA

CITY           SKY/WX    TMP DP  RH WIND       PRES   REMARKS
BURLINGTON     CLOUDY    31  25  78 S3        30.24S
FAIRFIELD *    CLOUDY    30  27  86 SE6       30.23F WCI  24
FORT MADISON * CLOUDY    32  28  86 CALM      30.25S
KEOKUK *       CLOUDY    32  28  86 SE5       30.24S WCI  27
OSKALOOSA *    CLOUDY    30  27  86 SE6       30.22S WCI  24
CENTERVILLE *  CLOUDY    32  32 100 SE7       30.20F FOG     WCI  26
OTTUMWA        CLOUDY    30  26  85 S6        30.21F WCI  24
WASHINGTON *   CLOUDY    30  30 100 SE7       30.23F WCI  23
$$

ABBREVIATIONS USED IN REMARKS
   TC - TEMPERATURES IN CELSIUS
  WCI - WIND CHILL INDEX
   HX - HEAT INDEX
  VSB - VISIBILITY
$$



USA.gov is the U.S. government's official web portal to all federal, state and local government web resources and services.